Weather History for Lago Vista, TX

Change the Weather History Date:

Tuesday, September 3, 2013

  Actual Average (KATT) Record (KATT)
Temperature  
Mean Temperature 84 °F 84 °F  
Max Temperature 96 °F 94 °F 108 °F (2000)
Min Temperature 73 °F 73 °F 59 °F (1974)
Degree Days  
Heating Degree Days 0 0  
Month to date heating degree days 0  
Since 1 July heating degree days 0  
Cooling Degree Days 20 18  
Month to date cooling degree days 56  
Year to date cooling degree days 2450  
Growing Degree Days 34 (Base 50)    
Moisture  
Dew Point 64 °F    
Average Humidity 52    
Maximum Humidity 88    
Minimum Humidity 28    
Precipitation  
Precipitation 0.00 in 0.10 in 3.15 in (1932)
Month to date precipitation 0.33  
Year to date precipitation 22.42  
Snow  
Snow 0.00 in - - ()
Month to date snowfall  
Since 1 July snowfall  
Since 1 September snowfall  
Snow Depth -    
Sea Level Pressure  
Sea Level Pressure 29.98 in    
Wind  
Wind Speed 5 mph (WSW)    
Max Wind Speed 9 mph    
Max Gust Speed 16 mph    
Visibility 10 miles    
Events Thunderstorm    
T = Trace of Precipitation, MM = Missing Value Source: NWS Daily Summary

Daily Weather History Graph

Daily Weather History Graph

Search for Another Location

Airport:

Trip Planner

Search our weather history database for the weather conditions in past years. The results will help you decide how hot, cold, wet, or windy it might be!

Date:

Astronomy

Sep. 03, 2013 Rise Set
Actual Time 7:09 AM CDT 7:51 PM CDT
Civil Twilight 6:45 AM CDT 8:16 PM CDT
Nautical Twilight 6:16 AM CDT 8:44 PM CDT
Astronomical Twilight 5:47 AM CDT 9:14 PM CDT
Moon 5:28 AM CDT (9/3) 6:38 PM CDT (9/3)
Length of Visible Light 13h 30m
Length of Day
12h 42m
Waning Crescent, 3% of the Moon is Illuminated
Sep 3
Waning Crescent
Sep 5
New
Sep 12
First Quarter
Sep 19
Full
Sep 26
Last Quarter

Hourly Weather History & Observations

Time (CDT) Temp. Heat Index Dew Point Humidity Pressure Visibility Wind Dir Wind Speed Gust Speed Precip Events Conditions
12:15 AM 80.6 °F 83.2 °F 68.0 °F 65% 29.99 in 10.0 mi WSW 6.9 mph - N/A   Scattered Clouds
12:35 AM 80.6 °F 83.2 °F 68.0 °F 65% 29.99 in 10.0 mi SW 4.6 mph - N/A   Clear
12:55 AM 80.6 °F 82.7 °F 66.2 °F 61% 29.99 in 10.0 mi SSW 8.1 mph 16.1 mph N/A   Clear
1:15 AM 80.6 °F 82.7 °F 66.2 °F 61% 29.99 in 10.0 mi SW 5.8 mph - N/A   Clear
1:35 AM 78.8 °F - 66.2 °F 65% 29.99 in 10.0 mi WSW 8.1 mph - N/A   Clear
1:55 AM 78.8 °F - 68.0 °F 69% 29.99 in 10.0 mi WSW 6.9 mph - N/A   Clear
2:15 AM 78.8 °F - 68.0 °F 69% 29.98 in 10.0 mi West 5.8 mph - N/A   Clear
2:35 AM 78.8 °F - 68.0 °F 69% 29.98 in 10.0 mi West 5.8 mph - N/A   Clear
2:55 AM 77.0 °F - 68.0 °F 74% 29.98 in 10.0 mi West 5.8 mph - N/A   Clear
3:15 AM 77.0 °F - 66.2 °F 69% 29.98 in 10.0 mi West 4.6 mph - N/A   Clear
3:35 AM 77.0 °F - 66.2 °F 69% 29.98 in 10.0 mi West 4.6 mph - N/A   Clear
3:55 AM 77.0 °F - 66.2 °F 69% 29.98 in 10.0 mi West 5.8 mph - N/A   Clear
4:15 AM 77.0 °F - 66.2 °F 69% 29.98 in 10.0 mi West 5.8 mph - N/A   Clear
4:35 AM 77.0 °F - 66.2 °F 69% 29.98 in 10.0 mi West 5.8 mph - N/A   Clear
4:55 AM 77.0 °F - 66.2 °F 69% 29.98 in 10.0 mi West 4.6 mph - N/A   Clear
5:15 AM 77.0 °F - 66.2 °F 69% 29.98 in 10.0 mi West 4.6 mph - N/A   Clear
5:35 AM 77.0 °F - 66.2 °F 69% 29.98 in 10.0 mi West 4.6 mph - N/A   Clear
5:55 AM 77.0 °F - 66.2 °F 69% 29.98 in 10.0 mi West 4.6 mph - N/A   Clear
6:15 AM 77.0 °F - 66.2 °F 69% 29.99 in 10.0 mi WSW 4.6 mph - N/A   Clear
6:35 AM 73.4 °F - 68.0 °F 83% 29.99 in 10.0 mi SW 4.6 mph - N/A   Clear
6:55 AM 73.4 °F - 69.8 °F 88% 30.00 in 10.0 mi WSW 4.6 mph - N/A   Clear
7:15 AM 73.4 °F - 69.8 °F 88% 30.00 in 10.0 mi SW 4.6 mph - N/A   Clear
7:35 AM 73.4 °F - 69.8 °F 88% 30.00 in 10.0 mi Calm Calm - N/A   Clear
7:55 AM 73.4 °F - 69.8 °F 88% 30.01 in 10.0 mi West 3.5 mph - N/A   Mostly Cloudy
8:15 AM 73.4 °F - 69.8 °F 88% 30.01 in 10.0 mi WSW 3.5 mph - N/A   Overcast
8:35 AM 77.0 °F - 68.0 °F 74% 30.02 in 10.0 mi West 5.8 mph - N/A   Overcast
8:55 AM 78.8 °F - 68.0 °F 69% 30.02 in 10.0 mi West 4.6 mph - N/A   Mostly Cloudy
9:15 AM 78.8 °F - 68.0 °F 69% 30.03 in 10.0 mi Calm Calm - N/A   Scattered Clouds
9:35 AM 80.6 °F 82.7 °F 66.2 °F 61% 30.03 in 10.0 mi WSW 3.5 mph - N/A   Scattered Clouds
9:55 AM 82.4 °F 84.6 °F 66.2 °F 58% 30.04 in 10.0 mi West 3.5 mph - N/A   Mostly Cloudy
10:15 AM 84.2 °F 85.6 °F 64.4 °F 51% 30.04 in 10.0 mi Calm Calm - N/A   Scattered Clouds
10:35 AM 86.0 °F 87.3 °F 64.4 °F 48% 30.05 in 10.0 mi Calm Calm - N/A   Clear
10:55 AM 87.8 °F 89.4 °F 64.4 °F 46% 30.05 in 10.0 mi SW 3.5 mph - N/A   Scattered Clouds
11:15 AM 89.6 °F 91.1 °F 64.4 °F 43% 30.05 in 10.0 mi Calm Calm - N/A   Scattered Clouds
11:35 AM 89.6 °F 90.1 °F 62.6 °F 40% 30.05 in 10.0 mi SW 4.6 mph - N/A   Scattered Clouds
11:55 AM 89.6 °F 90.1 °F 62.6 °F 40% 30.05 in 10.0 mi Calm Calm - N/A   Mostly Cloudy
12:15 PM 91.4 °F 92.1 °F 62.6 °F 38% 30.04 in 10.0 mi Calm Calm - N/A   Scattered Clouds
12:35 PM 91.4 °F 92.1 °F 62.6 °F 38% 30.03 in 10.0 mi ESE 3.5 mph - N/A   Scattered Clouds
12:55 PM 91.4 °F 92.1 °F 62.6 °F 38% 30.03 in 10.0 mi Calm Calm - N/A   Mostly Cloudy
1:15 PM 89.6 °F 90.1 °F 62.6 °F 40% 30.02 in 10.0 mi NW 3.5 mph - N/A   Mostly Cloudy
1:35 PM 89.6 °F 90.1 °F 62.6 °F 40% 30.02 in 10.0 mi West 8.1 mph - N/A   Scattered Clouds
1:55 PM 93.2 °F 93.3 °F 60.8 °F 34% 30.01 in 10.0 mi WSW 3.5 mph - N/A   Mostly Cloudy
2:15 PM 93.2 °F 93.3 °F 60.8 °F 34% 30.00 in 10.0 mi WSW 5.8 mph - N/A   Scattered Clouds
2:35 PM 96.8 °F 97.1 °F 60.8 °F 30% 29.99 in 10.0 mi South 5.8 mph - N/A   Clear
2:55 PM 95.0 °F 94.4 °F 59.0 °F 30% 29.98 in 10.0 mi WSW 5.8 mph - N/A   Mostly Cloudy
3:15 PM 95.0 °F 94.4 °F 59.0 °F 30% 29.97 in 10.0 mi Calm Calm - N/A   Mostly Cloudy
3:35 PM 95.0 °F 94.4 °F 59.0 °F 30% 29.95 in 10.0 mi WSW 4.6 mph - N/A   Mostly Cloudy
3:55 PM 96.8 °F 96.2 °F 59.0 °F 28% 29.95 in 10.0 mi East 3.5 mph - N/A   Mostly Cloudy
4:15 PM 95.0 °F 94.4 °F 59.0 °F 30% 29.95 in 10.0 mi Calm Calm - N/A   Mostly Cloudy
4:35 PM 89.6 °F 90.1 °F 62.6 °F 40% 29.95 in 10.0 mi NW 9.2 mph 16.1 mph N/A Thunderstorm Mostly Cloudy
4:55 PM 89.6 °F 89.5 °F 60.8 °F 38% 29.95 in 10.0 mi West 6.9 mph 12.7 mph N/A   Scattered Clouds
5:15 PM 91.4 °F 91.4 °F 60.8 °F 36% 29.93 in 10.0 mi West 6.9 mph - N/A   Clear
5:35 PM 93.2 °F 91.9 °F 57.2 °F 30% 29.93 in 10.0 mi West 4.6 mph - N/A   Clear
5:55 PM 95.0 °F 94.4 °F 59.0 °F 30% 29.93 in 10.0 mi NW 3.5 mph - N/A   Clear
6:15 PM 95.0 °F 94.4 °F 59.0 °F 30% 29.93 in 10.0 mi Calm Calm - N/A   Clear
6:35 PM 95.0 °F 94.4 °F 59.0 °F 30% 29.93 in 10.0 mi Calm Calm - N/A   Clear
6:55 PM 93.2 °F 92.6 °F 59.0 °F 32% 29.93 in 10.0 mi Calm Calm - N/A   Clear
7:15 PM 93.2 °F 92.6 °F 59.0 °F 32% 29.93 in 10.0 mi Calm Calm - N/A   Clear
7:35 PM 89.6 °F 89.5 °F 60.8 °F 38% 29.93 in 10.0 mi Calm Calm - N/A   Clear
7:55 PM 87.8 °F 87.6 °F 60.8 °F 40% 29.94 in 10.0 mi NE 3.5 mph - N/A   Clear
8:15 PM 87.8 °F 87.6 °F 60.8 °F 40% 29.94 in 10.0 mi Calm Calm - N/A   Clear
8:35 PM 87.8 °F 87.6 °F 60.8 °F 40% 29.94 in 10.0 mi Calm Calm - N/A   Clear
8:55 PM 87.8 °F 87.1 °F 59.0 °F 38% 29.95 in 10.0 mi Calm Calm - N/A   Clear
9:15 PM 87.8 °F 87.1 °F 59.0 °F 38% 29.95 in 10.0 mi Calm Calm - N/A   Clear
9:35 PM 87.8 °F 87.1 °F 59.0 °F 38% 29.96 in 10.0 mi Calm Calm - N/A   Scattered Clouds
9:55 PM 87.8 °F 87.1 °F 59.0 °F 38% 29.96 in 10.0 mi Calm Calm - N/A   Scattered Clouds
10:15 PM 86.0 °F 86.1 °F 60.8 °F 43% 29.97 in 10.0 mi East 3.5 mph - N/A   Mostly Cloudy
10:35 PM 86.0 °F 86.1 °F 60.8 °F 43% 29.97 in 10.0 mi ESE 6.9 mph - N/A   Overcast
10:55 PM 86.0 °F 86.1 °F 60.8 °F 43% 29.97 in 10.0 mi SE 4.6 mph - N/A   Scattered Clouds
11:15 PM 86.0 °F 86.1 °F 60.8 °F 43% 29.97 in 10.0 mi SSE 5.8 mph - N/A   Clear
11:35 PM 86.0 °F 86.1 °F 60.8 °F 43% 29.98 in 10.0 mi SSE 6.9 mph - N/A   Clear
11:55 PM 86.0 °F 86.1 °F 60.8 °F 43% 29.98 in 10.0 mi SSE 4.6 mph - N/A   Clear